Location: Villingen
(48.0639°N, 8.4609°E)
Time: 06:19:02
(UTC+02:00)

ELECTRON R/B - Visible Passes

Search period start: 22 May 2018 00:00
Search period end: 01 June 2018 00:00
Orbit: 285 x 480 km, 82.9° (Epoch: 21 May)

Date Brightness Start Highest point End Pass type
(mag) Time Alt. Az. Time Alt. Az. Time Alt. Az.
22 May 4.3 22:06:39 10° N 22:09:06 81° W 22:11:31 10° S visible
23 May 7.3 22:43:50 10° NW 22:45:18 14° W 22:46:45 10° SW visible
24 May 4.2 21:46:28 10° N 21:48:55 82° E 21:51:22 10° S visible
25 May 7.2 22:23:19 10° NW 22:25:01 17° W 22:26:43 10° SW visible
27 May 7.0 22:02:32 10° NW 22:04:26 20° W 22:06:23 10° SW visible
